owner,sensor,date,latitude,longitude,vertical_datum,wind_speed,wind_to_direction,wind_speed_of_gust,qcFlag 
COMPS,ioos:station:USF.COMPS:CAM:1,2012-09-07T17:00:00Z,27.7650,-82.6490,10.0,2.1,160.0,,'1111122,1111122,1111122' 
COMPS,ioos:station:USF.COMPS:CAM:1,2012-09-07T18:00:00Z,27.7650,-82.6490,10.0,2.6,220.0,,'1111122,1111122,1111122' 
COMPS,ioos:station:USF.COMPS:CAM:1,2012-09-07T19:00:00Z,27.7650,-82.6490,10.0,3.1,220.0,,'1111122,1111122,1111122' 
COMPS,ioos:station:USF.COMPS:CAM:1,2012-09-07T20:00:00Z,27.7650,-82.6490,10.0,3.1,220.0,,'1111122,1111122,1111122' 
COMPS,ioos:station:USF.COMPS:CAM:1,2012-09-07T21:00:00Z,27.7650,-82.6490,10.0,2.1,210.0,,'1111122,1111122,1111122' 
COMPS,ioos:station:USF.COMPS:CAM:1,2012-09-07T22:00:00Z,27.7650,-82.6490,10.0,2.1,210.0,,'1111122,1111122,1111122' 
COMPS,ioos:station:USF.COMPS:CAM:1,2012-09-07T23:00:00Z,27.7650,-82.6490,10.0,2.1,220.0,,'1111122,1111122,1111122' 
COMPS,ioos:station:USF.COMPS:CAM:1,2012-09-08T00:00:00Z,27.7650,-82.6490,10.0,1.0,220.0,,'1111122,1111122,1111122' 
COMPS,ioos:station:USF.COMPS:CAM:1,2012-09-08T01:00:00Z,27.7650,-82.6490,10.0,1.0,220.0,,'1111122,1111122,1111122' 
COMPS,ioos:station:USF.COMPS:CAM:1,2012-09-08T07:00:00Z,27.7650,-82.6490,10.0,0.5,180.0,,'1111122,1111122,1111122' 
COMPS,ioos:station:USF.COMPS:CAM:1,2012-09-08T08:00:00Z,27.7650,-82.6490,10.0,0.5,170.0,,'1111122,1111122,1111122' 
COMPS,ioos:station:USF.COMPS:CAM:1,2012-09-08T09:00:00Z,27.7650,-82.6490,10.0,0.5,170.0,,'1111122,1111122,1111122' 
COMPS,ioos:station:USF.COMPS:CAM:1,2012-09-08T10:00:00Z,27.7650,-82.6490,10.0,0.5,170.0,,'1111122,1111122,1111122' 
COMPS,ioos:station:USF.COMPS:CAM:1,2012-09-08T11:00:00Z,27.7650,-82.6490,10.0,0.5,160.0,,'1111122,1111122,1111122' 
COMPS,ioos:station:USF.COMPS:CAM:1,2012-09-08T12:00:00Z,27.7650,-82.6490,10.0,0.5,150.0,,'1111122,1111122,1111122' 
COMPS,ioos:station:USF.COMPS:CAM:1,2012-09-08T13:00:00Z,27.7650,-82.6490,10.0,1.0,180.0,,'1111122,1111122,1111122' 
COMPS,ioos:station:USF.COMPS:CAM:1,2012-09-08T14:00:00Z,27.7650,-82.6490,10.0,2.1,180.0,,'1111122,1111122,1111122' 
COMPS,ioos:station:USF.COMPS:CAM:1,2012-09-08T15:00:00Z,27.7650,-82.6490,10.0,2.1,170.0,,'1111122,1111122,1111122' 
COMPS,ioos:station:USF.COMPS:CAM:1,2012-09-08T16:00:00Z,27.7650,-82.6490,10.0,2.1,180.0,,'1111122,1111122,1111122' 
COMPS,ioos:station:USF.COMPS:CAM:1,2012-09-08T17:00:00Z,27.7650,-82.6490,10.0,2.1,190.0,,'1111122,1111122,1111122' 
COMPS,ioos:station:USF.COMPS:CAM:1,2012-09-08T18:00:00Z,27.7650,-82.6490,10.0,2.6,170.0,,'1111122,1111122,1111122' 
COMPS,ioos:station:USF.COMPS:CAM:1,2012-09-08T19:00:00Z,27.7650,-82.6490,10.0,2.6,190.0,,'1111122,1111122,1111122' 
COMPS,ioos:station:USF.COMPS:CAM:1,2012-09-08T20:00:00Z,27.7650,-82.6490,10.0,2.6,200.0,,'1111122,1111122,1111122' 
COMPS,ioos:station:USF.COMPS:CAM:1,2012-09-08T21:00:00Z,27.7650,-82.6490,10.0,2.6,190.0,,'1111122,1111122,1111122' 
COMPS,ioos:station:USF.COMPS:CAM:1,2012-09-08T22:00:00Z,27.7650,-82.6490,10.0,2.6,200.0,,'1111122,1111122,1111122' 
COMPS,ioos:station:USF.COMPS:CAM:1,2012-09-08T23:00:00Z,27.7650,-82.6490,10.0,2.1,190.0,,'1111122,1111122,1111122' 
COMPS,ioos:station:USF.COMPS:CAM:1,2012-09-09T00:00:00Z,27.7650,-82.6490,10.0,2.1,190.0,,'1111122,1111122,1111122' 
COMPS,ioos:station:USF.COMPS:CAM:1,2012-09-09T02:00:00Z,27.7650,-82.6490,10.0,2.1,190.0,,'1111122,1111122,1111122' 
COMPS,ioos:station:USF.COMPS:CAM:1,2012-09-09T03:00:00Z,27.7650,-82.6490,10.0,2.1,180.0,,'1111122,1111122,1111122' 
COMPS,ioos:station:USF.COMPS:CAM:1,2012-09-09T04:00:00Z,27.7650,-82.6490,10.0,1.5,200.0,,'1111122,1111122,1111122' 
COMPS,ioos:station:USF.COMPS:CAM:1,2012-09-09T05:00:00Z,27.7650,-82.6490,10.0,2.6,200.0,,'1111122,1111122,1111122' 
COMPS,ioos:station:USF.COMPS:CAM:1,2012-09-09T06:00:00Z,27.7650,-82.6490,10.0,3.1,200.0,,'1111122,1111122,1111122' 
COMPS,ioos:station:USF.COMPS:CAM:1,2012-09-09T07:00:00Z,27.7650,-82.6490,10.0,2.6,200.0,,'1111122,1111122,1111122' 
COMPS,ioos:station:USF.COMPS:CAM:1,2012-09-09T08:00:00Z,27.7650,-82.6490,10.0,2.6,210.0,,'1111122,1111122,1111122' 
COMPS,ioos:station:USF.COMPS:CAM:1,2012-09-09T09:00:00Z,27.7650,-82.6490,10.0,2.1,200.0,,'1111122,1111122,1111122' 
COMPS,ioos:station:USF.COMPS:CAM:1,2012-09-09T13:00:00Z,27.7650,-82.6490,10.0,2.1,230.0,,'1111122,1111122,1111122' 
COMPS,ioos:station:USF.COMPS:CAM:1,2012-09-09T14:00:00Z,27.7650,-82.6490,10.0,2.1,340.0,,'1111122,1111122,1111122' 
COMPS,ioos:station:USF.COMPS:CAM:1,2012-09-09T15:00:00Z,27.7650,-82.6490,10.0,1.0,200.0,,'1111122,1111122,1111122' 
COMPS,ioos:station:USF.COMPS:CAM:1,2012-09-09T17:00:00Z,27.7650,-82.6490,10.0,0.5,130.0,,'1111122,1111122,1111122' 
COMPS,ioos:station:USF.COMPS:CAM:1,2012-09-09T18:00:00Z,27.7650,-82.6490,10.0,1.0,190.0,,'1111122,1111122,1111122' 
COMPS,ioos:station:USF.COMPS:CAM:1,2012-09-09T19:00:00Z,27.7650,-82.6490,10.0,3.1,210.0,,'1111122,1111122,1111122' 
COMPS,ioos:station:USF.COMPS:CAM:1,2012-09-09T20:00:00Z,27.7650,-82.6490,10.0,3.6,220.0,,'1111122,1111122,1111122' 
COMPS,ioos:station:USF.COMPS:CAM:1,2012-09-09T21:00:00Z,27.7650,-82.6490,10.0,2.6,240.0,,'1111122,1111122,1111122' 
COMPS,ioos:station:USF.COMPS:CAM:1,2012-09-09T22:00:00Z,27.7650,-82.6490,10.0,1.0,250.0,,'1111122,1111122,1111122' 
COMPS,ioos:station:USF.COMPS:CAM:1,2012-09-09T23:00:00Z,27.7650,-82.6490,10.0,1.5,250.0,,'1111122,1111122,1111122' 
COMPS,ioos:station:USF.COMPS:CAM:1,2012-09-10T00:00:00Z,27.7650,-82.6490,10.0,1.0,230.0,,'1111122,1111122,1111122' 
COMPS,ioos:station:USF.COMPS:CAM:1,2012-09-10T01:00:00Z,27.7650,-82.6490,10.0,0.5,250.0,,'1111122,1111122,1111122' 
COMPS,ioos:station:USF.COMPS:CAM:1,2012-09-10T06:00:00Z,27.7650,-82.6490,10.0,1.5,300.0,,'1111122,1111122,1111122' 
COMPS,ioos:station:USF.COMPS:CAM:1,2012-09-10T10:00:00Z,27.7650,-82.6490,10.0,1.0,290.0,,'1111122,1111122,1111122' 
COMPS,ioos:station:USF.COMPS:CAM:1,2012-09-10T15:00:00Z,27.7650,-82.6490,10.0,0.5,280.0,,'1111122,1111122,1111122' 
COMPS,ioos:station:USF.COMPS:CAM:1,2012-09-10T16:00:00Z,27.7650,-82.6490,10.0,0.5,280.0,,'1111122,1111122,1111122' 
COMPS,ioos:station:USF.COMPS:CAM:1,2012-09-10T17:00:00Z,27.7650,-82.6490,10.0,0.5,170.0,,'1111122,1111122,1111122' 
COMPS,ioos:station:USF.COMPS:CAM:1,2012-09-10T18:00:00Z,27.7650,-82.6490,10.0,1.0,120.0,,'1111122,1111122,1111122' 
COMPS,ioos:station:USF.COMPS:CAM:1,2012-09-10T19:00:00Z,27.7650,-82.6490,10.0,2.1,220.0,,'1111122,1111122,1111122' 
COMPS,ioos:station:USF.COMPS:CAM:1,2012-09-10T20:00:00Z,27.7650,-82.6490,10.0,3.6,230.0,,'1111122,1111122,1111122' 
COMPS,ioos:station:USF.COMPS:CAM:1,2012-09-10T22:00:00Z,27.7650,-82.6490,10.0,2.1,260.0,,'1111122,1111122,1111122' 
COMPS,ioos:station:USF.COMPS:CAM:1,2012-09-10T23:00:00Z,27.7650,-82.6490,10.0,2.1,260.0,,'1111122,1111122,1111122' 
COMPS,ioos:station:USF.COMPS:CAM:1,2012-09-11T00:00:00Z,27.7650,-82.6490,10.0,1.5,260.0,,'1111122,1111122,1111122' 
COMPS,ioos:station:USF.COMPS:CAM:1,2012-09-11T01:00:00Z,27.7650,-82.6490,10.0,1.0,320.0,,'1111122,1111122,1111122' 
COMPS,ioos:station:USF.COMPS:CAM:1,2012-09-11T02:00:00Z,27.7650,-82.6490,10.0,1.0,310.0,,'1111122,1111122,1111122' 
COMPS,ioos:station:USF.COMPS:CAM:1,2012-09-11T03:00:00Z,27.7650,-82.6490,10.0,1.0,60.0,,'1111122,1111122,1111122' 
COMPS,ioos:station:USF.COMPS:CAM:1,2012-09-11T04:00:00Z,27.7650,-82.6490,10.0,0.5,80.0,,'1111122,1111122,1111122' 
COMPS,ioos:station:USF.COMPS:CAM:1,2012-09-11T05:00:00Z,27.7650,-82.6490,10.0,1.5,80.0,,'1111122,1111122,1111122' 
COMPS,ioos:station:USF.COMPS:CAM:1,2012-09-11T06:00:00Z,27.7650,-82.6490,10.0,1.5,90.0,,'1111122,1111122,1111122' 
COMPS,ioos:station:USF.COMPS:CAM:1,2012-09-11T07:00:00Z,27.7650,-82.6490,10.0,2.1,70.0,,'1111122,1111122,1111122' 
COMPS,ioos:station:USF.COMPS:CAM:1,2012-09-11T08:00:00Z,27.7650,-82.6490,10.0,1.5,60.0,,'1111122,1111122,1111122' 
COMPS,ioos:station:USF.COMPS:CAM:1,2012-09-11T09:00:00Z,27.7650,-82.6490,10.0,1.5,60.0,,'1111122,1111122,1111122' 
COMPS,ioos:station:USF.COMPS:CAM:1,2012-09-11T10:00:00Z,27.7650,-82.6490,10.0,1.0,60.0,,'1111122,1111122,1111122' 
COMPS,ioos:station:USF.COMPS:CAM:1,2012-09-11T11:00:00Z,27.7650,-82.6490,10.0,1.0,20.0,,'1111122,1111122,1111122' 
COMPS,ioos:station:USF.COMPS:CAM:1,2012-09-11T12:00:00Z,27.7650,-82.6490,10.0,1.5,80.0,,'1111122,1111122,1111122' 
COMPS,ioos:station:USF.COMPS:CAM:1,2012-09-11T13:00:00Z,27.7650,-82.6490,10.0,2.1,60.0,,'1111122,1111122,1111122' 
COMPS,ioos:station:USF.COMPS:CAM:1,2012-09-11T14:00:00Z,27.7650,-82.6490,10.0,2.6,70.0,,'1111122,1111122,1111122' 
COMPS,ioos:station:USF.COMPS:CAM:1,2012-09-11T15:00:00Z,27.7650,-82.6490,10.0,3.6,70.0,,'1111122,1111122,1111122' 
COMPS,ioos:station:USF.COMPS:CAM:1,2012-09-11T16:00:00Z,27.7650,-82.6490,10.0,3.1,70.0,,'1111122,1111122,1111122' 
COMPS,ioos:station:USF.COMPS:CAM:1,2012-09-11T17:00:00Z,27.7650,-82.6490,10.0,2.1,80.0,,'1111122,1111122,1111122' 
COMPS,ioos:station:USF.COMPS:CAM:1,2012-09-11T18:00:00Z,27.7650,-82.6490,10.0,2.6,80.0,,'1111122,1111122,1111122' 
COMPS,ioos:station:USF.COMPS:CAM:1,2012-09-11T19:00:00Z,27.7650,-82.6490,10.0,2.6,70.0,,'1111122,1111122,1111122' 
COMPS,ioos:station:USF.COMPS:CAM:1,2012-09-11T20:00:00Z,27.7650,-82.6490,10.0,2.1,70.0,,'1111122,1111122,1111122' 
COMPS,ioos:station:USF.COMPS:CAM:1,2012-09-11T21:00:00Z,27.7650,-82.6490,10.0,2.1,80.0,,'1111122,1111122,1111122' 
COMPS,ioos:station:USF.COMPS:CAM:1,2012-09-11T22:00:00Z,27.7650,-82.6490,10.0,3.6,70.0,,'1111122,1111122,1111122' 
COMPS,ioos:station:USF.COMPS:CAM:1,2012-09-12T01:00:00Z,27.7650,-82.6490,10.0,3.1,70.0,,'1111122,1111122,1111122' 
COMPS,ioos:station:USF.COMPS:CAM:1,2012-09-12T02:00:00Z,27.7650,-82.6490,10.0,3.1,80.0,,'1111122,1111122,1111122' 
COMPS,ioos:station:USF.COMPS:CAM:1,2012-09-12T03:00:00Z,27.7650,-82.6490,10.0,2.6,80.0,,'1111122,1111122,1111122' 
COMPS,ioos:station:USF.COMPS:CAM:1,2012-09-12T04:00:00Z,27.7650,-82.6490,10.0,2.1,70.0,,'1111122,1111122,1111122' 
COMPS,ioos:station:USF.COMPS:CAM:1,2012-09-12T05:00:00Z,27.7650,-82.6490,10.0,3.1,80.0,,'1111122,1111122,1111122' 
COMPS,ioos:station:USF.COMPS:CAM:1,2012-09-12T06:00:00Z,27.7650,-82.6490,10.0,2.6,70.0,,'1111122,1111122,1111122' 
COMPS,ioos:station:USF.COMPS:CAM:1,2012-09-12T07:00:00Z,27.7650,-82.6490,10.0,2.6,60.0,,'1111122,1111122,1111122' 
COMPS,ioos:station:USF.COMPS:CAM:1,2012-09-12T08:00:00Z,27.7650,-82.6490,10.0,2.1,60.0,,'1111122,1111122,1111122' 
COMPS,ioos:station:USF.COMPS:CAM:1,2012-09-12T09:00:00Z,27.7650,-82.6490,10.0,2.1,50.0,,'1111122,1111122,1111122' 
COMPS,ioos:station:USF.COMPS:CAM:1,2012-09-12T10:00:00Z,27.7650,-82.6490,10.0,2.1,60.0,,'1111122,1111122,1111122' 
COMPS,ioos:station:USF.COMPS:CAM:1,2012-09-12T11:00:00Z,27.7650,-82.6490,10.0,1.5,40.0,,'1111122,1111122,1111122' 
COMPS,ioos:station:USF.COMPS:CAM:1,2012-09-12T12:00:00Z,27.7650,-82.6490,10.0,1.0,50.0,,'1111122,1111122,1111122' 
COMPS,ioos:station:USF.COMPS:CAM:1,2012-09-12T13:00:00Z,27.7650,-82.6490,10.0,1.5,40.0,,'1111122,1111122,1111122' 
COMPS,ioos:station:USF.COMPS:CAM:1,2012-09-12T14:00:00Z,27.7650,-82.6490,10.0,2.6,60.0,,'1111122,1111122,1111122' 
COMPS,ioos:station:USF.COMPS:CAM:1,2012-09-12T15:00:00Z,27.7650,-82.6490,10.0,2.1,60.0,,'1111122,1111122,1111122' 
COMPS,ioos:station:USF.COMPS:CAM:1,2012-09-12T16:00:00Z,27.7650,-82.6490,10.0,2.6,80.0,,'1111122,1111122,1111122' 
COMPS,ioos:station:USF.COMPS:CAM:1,2012-09-12T17:00:00Z,27.7650,-82.6490,10.0,2.1,50.0,,'1111122,1111122,1111122' 
COMPS,ioos:station:USF.COMPS:CAM:1,2012-09-12T18:00:00Z,27.7650,-82.6490,10.0,2.1,90.0,,'1111122,1111122,1111122' 
COMPS,ioos:station:USF.COMPS:CAM:1,2012-09-12T19:00:00Z,27.7650,-82.6490,10.0,3.1,70.0,,'1111122,1111122,1111122' 
COMPS,ioos:station:USF.COMPS:CAM:1,2012-09-12T20:00:00Z,27.7650,-82.6490,10.0,2.1,50.0,,'1111122,1111122,1111122' 
COMPS,ioos:station:USF.COMPS:CAM:1,2012-09-12T21:00:00Z,27.7650,-82.6490,10.0,3.6,80.0,,'1111122,1111122,1111122' 
COMPS,ioos:station:USF.COMPS:CAM:1,2012-09-12T22:00:00Z,27.7650,-82.6490,10.0,2.6,60.0,,'1111122,1111122,1111122' 
COMPS,ioos:station:USF.COMPS:CAM:1,2012-09-13T00:00:00Z,27.7650,-82.6490,10.0,2.6,70.0,,'1111122,1111122,1111122' 
COMPS,ioos:station:USF.COMPS:CAM:1,2012-09-13T01:00:00Z,27.7650,-82.6490,10.0,2.6,80.0,,'1111122,1111122,1111122' 
COMPS,ioos:station:USF.COMPS:CAM:1,2012-09-13T02:00:00Z,27.7650,-82.6490,10.0,2.1,70.0,,'1111122,1111122,1111122' 
COMPS,ioos:station:USF.COMPS:CAM:1,2012-09-13T03:00:00Z,27.7650,-82.6490,10.0,2.1,50.0,,'1111122,1111122,1111122' 
COMPS,ioos:station:USF.COMPS:CAM:1,2012-09-13T04:00:00Z,27.7650,-82.6490,10.0,3.1,60.0,,'1111122,1111122,1111122' 
COMPS,ioos:station:USF.COMPS:CAM:1,2012-09-13T05:00:00Z,27.7650,-82.6490,10.0,2.6,70.0,,'1111122,1111122,1111122' 
COMPS,ioos:station:USF.COMPS:CAM:1,2012-09-13T06:00:00Z,27.7650,-82.6490,10.0,2.1,60.0,,'1111122,1111122,1111122' 
COMPS,ioos:station:USF.COMPS:CAM:1,2012-09-13T07:00:00Z,27.7650,-82.6490,10.0,1.0,30.0,,'1111122,1111122,1111122' 
COMPS,ioos:station:USF.COMPS:CAM:1,2012-09-13T08:00:00Z,27.7650,-82.6490,10.0,1.5,50.0,,'1111122,1111122,1111122' 
COMPS,ioos:station:USF.COMPS:CAM:1,2012-09-13T09:00:00Z,27.7650,-82.6490,10.0,1.5,60.0,,'1111122,1111122,1111122' 
COMPS,ioos:station:USF.COMPS:CAM:1,2012-09-13T10:00:00Z,27.7650,-82.6490,10.0,1.0,30.0,,'1111122,1111122,1111122' 
COMPS,ioos:station:USF.COMPS:CAM:1,2012-09-13T11:00:00Z,27.7650,-82.6490,10.0,1.5,40.0,,'1111122,1111122,1111122' 
COMPS,ioos:station:USF.COMPS:CAM:1,2012-09-13T12:00:00Z,27.7650,-82.6490,10.0,1.5,60.0,,'1111122,1111122,1111122' 
COMPS,ioos:station:USF.COMPS:CAM:1,2012-09-13T13:00:00Z,27.7650,-82.6490,10.0,2.1,60.0,,'1111122,1111122,1111122' 
COMPS,ioos:station:USF.COMPS:CAM:1,2012-09-13T14:00:00Z,27.7650,-82.6490,10.0,2.6,60.0,,'1111122,1111122,1111122' 
COMPS,ioos:station:USF.COMPS:CAM:1,2012-09-13T15:00:00Z,27.7650,-82.6490,10.0,3.1,90.0,,'1111122,1111122,1111122' 
COMPS,ioos:station:USF.COMPS:CAM:1,2012-09-13T16:00:00Z,27.7650,-82.6490,10.0,2.6,70.0,,'1111122,1111122,1111122' 
COMPS,ioos:station:USF.COMPS:CAM:1,2012-09-13T17:00:00Z,27.7650,-82.6490,10.0,2.6,80.0,,'1111122,1111122,1111122' 
COMPS,ioos:station:USF.COMPS:CAM:1,2012-09-13T19:00:00Z,27.7650,-82.6490,10.0,2.6,80.0,,'1111122,1111122,1111122' 
COMPS,ioos:station:USF.COMPS:CAM:1,2012-09-13T20:00:00Z,27.7650,-82.6490,10.0,2.1,130.0,,'1111122,1111122,1111122' 
COMPS,ioos:station:USF.COMPS:CAM:1,2012-09-13T21:00:00Z,27.7650,-82.6490,10.0,1.5,100.0,,'1111122,1111122,1111122' 
COMPS,ioos:station:USF.COMPS:CAM:1,2012-09-13T22:00:00Z,27.7650,-82.6490,10.0,1.5,100.0,,'1111122,1111122,1111122' 
COMPS,ioos:station:USF.COMPS:CAM:1,2012-09-14T00:00:00Z,27.7650,-82.6490,10.0,2.1,90.0,,'1111122,1111122,1111122' 
COMPS,ioos:station:USF.COMPS:CAM:1,2012-09-14T01:00:00Z,27.7650,-82.6490,10.0,1.5,90.0,,'1111122,1111122,1111122' 
COMPS,ioos:station:USF.COMPS:CAM:1,2012-09-14T02:00:00Z,27.7650,-82.6490,10.0,2.1,70.0,,'1111122,1111122,1111122' 
COMPS,ioos:station:USF.COMPS:CAM:1,2012-09-14T03:00:00Z,27.7650,-82.6490,10.0,2.6,70.0,,'1111122,1111122,1111122' 
COMPS,ioos:station:USF.COMPS:CAM:1,2012-09-14T04:00:00Z,27.7650,-82.6490,10.0,1.5,70.0,,'1111122,1111122,1111122' 
COMPS,ioos:station:USF.COMPS:CAM:1,2012-09-14T05:00:00Z,27.7650,-82.6490,10.0,2.1,60.0,,'1111122,1111122,1111122' 
COMPS,ioos:station:USF.COMPS:CAM:1,2012-09-14T06:00:00Z,27.7650,-82.6490,10.0,1.0,80.0,,'1111122,1111122,1111122' 
COMPS,ioos:station:USF.COMPS:CAM:1,2012-09-14T07:00:00Z,27.7650,-82.6490,10.0,1.0,50.0,,'1111122,1111122,1111122' 
COMPS,ioos:station:USF.COMPS:CAM:1,2012-09-14T08:00:00Z,27.7650,-82.6490,10.0,1.5,50.0,,'1111122,1111122,1111122' 
COMPS,ioos:station:USF.COMPS:CAM:1,2012-09-14T09:00:00Z,27.7650,-82.6490,10.0,1.0,40.0,,'1111122,1111122,1111122' 
COMPS,ioos:station:USF.COMPS:CAM:1,2012-09-14T10:00:00Z,27.7650,-82.6490,10.0,1.0,40.0,,'1111122,1111122,1111122' 
COMPS,ioos:station:USF.COMPS:CAM:1,2012-09-14T11:00:00Z,27.7650,-82.6490,10.0,1.0,40.0,,'1111122,1111122,1111122' 
COMPS,ioos:station:USF.COMPS:CAM:1,2012-09-14T12:00:00Z,27.7650,-82.6490,10.0,1.0,40.0,,'1111122,1111122,1111122' 
COMPS,ioos:station:USF.COMPS:CAM:1,2012-09-14T13:00:00Z,27.7650,-82.6490,10.0,2.1,60.0,,'1111122,1111122,1111122' 
COMPS,ioos:station:USF.COMPS:CAM:1,2012-09-14T14:00:00Z,27.7650,-82.6490,10.0,2.1,60.0,,'1111122,1111122,1111122' 
COMPS,ioos:station:USF.COMPS:CAM:1,2012-09-14T15:00:00Z,27.7650,-82.6490,10.0,2.1,60.0,,'1111122,1111122,1111122' 
COMPS,ioos:station:USF.COMPS:CAM:1,2012-09-14T16:00:00Z,27.7650,-82.6490,10.0,1.5,60.0,,'1111122,1111122,1111122' 
COMPS,ioos:station:USF.COMPS:CAM:1,2012-09-14T17:00:00Z,27.7650,-82.6490,10.0,2.6,70.0,,'1111122,1111122,1111122' 
COMPS,ioos:station:USF.COMPS:CAM:1,2012-09-14T18:00:00Z,27.7650,-82.6490,10.0,2.6,60.0,,'1111122,1111122,1111122' 
COMPS,ioos:station:USF.COMPS:CAM:1,2012-09-14T19:00:00Z,27.7650,-82.6490,10.0,2.1,50.0,,'1111122,1111122,1111122' 
COMPS,ioos:station:USF.COMPS:CAM:1,2012-09-14T20:00:00Z,27.7650,-82.6490,10.0,2.1,60.0,,'1111122,1111122,1111122' 
COMPS,ioos:station:USF.COMPS:CAM:1,2012-09-14T21:00:00Z,27.7650,-82.6490,10.0,2.6,70.0,,'1111122,1111122,1111122' 
COMPS,ioos:station:USF.COMPS:CAM:1,2012-09-14T22:00:00Z,27.7650,-82.6490,10.0,2.1,90.0,,'1111122,1111122,1111122' 
COMPS,ioos:station:USF.COMPS:CAM:1,2012-09-14T23:00:00Z,27.7650,-82.6490,10.0,1.0,90.0,,'1111122,1111122,1111122' 
COMPS,ioos:station:USF.COMPS:CAM:1,2012-09-15T00:00:00Z,27.7650,-82.6490,10.0,1.5,80.0,,'1111122,1111122,1111122' 
COMPS,ioos:station:USF.COMPS:CAM:1,2012-09-15T01:00:00Z,27.7650,-82.6490,10.0,2.1,50.0,,'1111122,1111122,1111122' 
COMPS,ioos:station:USF.COMPS:CAM:1,2012-09-15T02:00:00Z,27.7650,-82.6490,10.0,2.6,70.0,,'1111122,1111122,1111122' 
COMPS,ioos:station:USF.COMPS:CAM:1,2012-09-15T03:00:00Z,27.7650,-82.6490,10.0,2.6,80.0,,'1111122,1111122,1111122' 
COMPS,ioos:station:USF.COMPS:CAM:1,2012-09-15T04:00:00Z,27.7650,-82.6490,10.0,2.6,70.0,,'1111122,1111122,1111122' 
COMPS,ioos:station:USF.COMPS:CAM:1,2012-09-15T05:00:00Z,27.7650,-82.6490,10.0,2.6,70.0,,'1111122,1111122,1111122' 
COMPS,ioos:station:USF.COMPS:CAM:1,2012-09-15T06:00:00Z,27.7650,-82.6490,10.0,2.6,80.0,,'1111122,1111122,1111122' 
COMPS,ioos:station:USF.COMPS:CAM:1,2012-09-15T07:00:00Z,27.7650,-82.6490,10.0,2.1,80.0,,'1111122,1111122,1111122' 
COMPS,ioos:station:USF.COMPS:CAM:1,2012-09-15T08:00:00Z,27.7650,-82.6490,10.0,2.1,70.0,,'1111122,1111122,1111122' 
COMPS,ioos:station:USF.COMPS:CAM:1,2012-09-15T09:00:00Z,27.7650,-82.6490,10.0,1.0,60.0,,'1111122,1111122,1111122' 
COMPS,ioos:station:USF.COMPS:CAM:1,2012-09-15T10:00:00Z,27.7650,-82.6490,10.0,1.5,80.0,,'1111122,1111122,1111122' 
COMPS,ioos:station:USF.COMPS:CAM:1,2012-09-15T11:00:00Z,27.7650,-82.6490,10.0,1.5,60.0,,'1111122,1111122,1111122' 
COMPS,ioos:station:USF.COMPS:CAM:1,2012-09-15T12:00:00Z,27.7650,-82.6490,10.0,1.5,70.0,,'1111122,1111122,1111122' 
COMPS,ioos:station:USF.COMPS:CAM:1,2012-09-15T13:00:00Z,27.7650,-82.6490,10.0,2.1,70.0,,'1111122,1111122,1111122' 
COMPS,ioos:station:USF.COMPS:CAM:1,2012-09-15T14:00:00Z,27.7650,-82.6490,10.0,2.6,60.0,,'1111122,1111122,1111122' 
COMPS,ioos:station:USF.COMPS:CAM:1,2012-09-15T15:00:00Z,27.7650,-82.6490,10.0,2.6,70.0,,'1111122,1111122,1111122' 
COMPS,ioos:station:USF.COMPS:CAM:1,2012-09-15T16:00:00Z,27.7650,-82.6490,10.0,2.1,70.0,,'1111122,1111122,1111122' 
COMPS,ioos:station:USF.COMPS:CAM:1,2012-09-15T17:00:00Z,27.7650,-82.6490,10.0,2.6,90.0,,'1111122,1111122,1111122' 
COMPS,ioos:station:USF.COMPS:CAM:1,2012-09-15T18:00:00Z,27.7650,-82.6490,10.0,2.1,70.0,,'1111122,1111122,1111122' 
COMPS,ioos:station:USF.COMPS:CAM:1,2012-09-15T19:00:00Z,27.7650,-82.6490,10.0,2.6,70.0,,'1111122,1111122,1111122' 
COMPS,ioos:station:USF.COMPS:CAM:1,2012-09-15T20:00:00Z,27.7650,-82.6490,10.0,2.6,70.0,,'1111122,1111122,1111122' 
COMPS,ioos:station:USF.COMPS:CAM:1,2012-09-15T21:00:00Z,27.7650,-82.6490,10.0,2.1,60.0,,'1111122,1111122,1111122' 
COMPS,ioos:station:USF.COMPS:CAM:1,2012-09-15T22:00:00Z,27.7650,-82.6490,10.0,3.6,70.0,,'1111122,1111122,1111122' 
COMPS,ioos:station:USF.COMPS:CAM:1,2012-09-15T23:00:00Z,27.7650,-82.6490,10.0,2.1,80.0,,'1111122,1111122,1111122' 
COMPS,ioos:station:USF.COMPS:CAM:1,2012-09-16T00:00:00Z,27.7650,-82.6490,10.0,1.0,80.0,,'1111122,1111122,1111122' 
COMPS,ioos:station:USF.COMPS:CAM:1,2012-09-16T01:00:00Z,27.7650,-82.6490,10.0,1.5,80.0,,'1111122,1111122,1111122' 
COMPS,ioos:station:USF.COMPS:CAM:1,2012-09-16T02:00:00Z,27.7650,-82.6490,10.0,1.0,90.0,,'1111122,1111122,1111122' 
COMPS,ioos:station:USF.COMPS:CAM:1,2012-09-16T03:00:00Z,27.7650,-82.6490,10.0,1.5,80.0,,'1111122,1111122,1111122' 
COMPS,ioos:station:USF.COMPS:CAM:1,2012-09-16T04:00:00Z,27.7650,-82.6490,10.0,1.5,80.0,,'1111122,1111122,1111122' 
COMPS,ioos:station:USF.COMPS:CAM:1,2012-09-16T05:00:00Z,27.7650,-82.6490,10.0,2.1,80.0,,'1111122,1111122,1111122' 
COMPS,ioos:station:USF.COMPS:CAM:1,2012-09-16T06:00:00Z,27.7650,-82.6490,10.0,1.5,90.0,,'1111122,1111122,1111122' 
COMPS,ioos:station:USF.COMPS:CAM:1,2012-09-16T07:00:00Z,27.7650,-82.6490,10.0,2.1,100.0,,'1111122,1111122,1111122' 
COMPS,ioos:station:USF.COMPS:CAM:1,2012-09-16T08:00:00Z,27.7650,-82.6490,10.0,1.5,70.0,,'1111122,1111122,1111122' 
COMPS,ioos:station:USF.COMPS:CAM:1,2012-09-16T09:00:00Z,27.7650,-82.6490,10.0,1.5,80.0,,'1111122,1111122,1111122' 
COMPS,ioos:station:USF.COMPS:CAM:1,2012-09-16T10:00:00Z,27.7650,-82.6490,10.0,2.1,70.0,,'1111122,1111122,1111122' 
COMPS,ioos:station:USF.COMPS:CAM:1,2012-09-16T11:00:00Z,27.7650,-82.6490,10.0,2.1,70.0,,'1111122,1111122,1111122' 
COMPS,ioos:station:USF.COMPS:CAM:1,2012-09-16T12:00:00Z,27.7650,-82.6490,10.0,1.5,80.0,,'1111122,1111122,1111122' 
COMPS,ioos:station:USF.COMPS:CAM:1,2012-09-16T13:00:00Z,27.7650,-82.6490,10.0,2.1,70.0,,'1111122,1111122,1111122' 
COMPS,ioos:station:USF.COMPS:CAM:1,2012-09-16T14:00:00Z,27.7650,-82.6490,10.0,2.1,80.0,,'1111122,1111122,1111122' 
COMPS,ioos:station:USF.COMPS:CAM:1,2012-09-16T15:00:00Z,27.7650,-82.6490,10.0,2.1,100.0,,'1111122,1111122,1111122' 
COMPS,ioos:station:USF.COMPS:CAM:1,2012-09-16T16:00:00Z,27.7650,-82.6490,10.0,2.1,110.0,,'1111122,1111122,1111122' 
COMPS,ioos:station:USF.COMPS:CAM:1,2012-09-16T17:00:00Z,27.7650,-82.6490,10.0,1.5,120.0,,'1111122,1111122,1111122' 
COMPS,ioos:station:USF.COMPS:CAM:1,2012-09-16T18:00:00Z,27.7650,-82.6490,10.0,1.5,90.0,,'1111122,1111122,1111122' 
COMPS,ioos:station:USF.COMPS:CAM:1,2012-09-16T19:00:00Z,27.7650,-82.6490,10.0,1.0,340.0,,'1111122,1111122,1111122' 
COMPS,ioos:station:USF.COMPS:CAM:1,2012-09-16T20:00:00Z,27.7650,-82.6490,10.0,1.0,100.0,,'1111122,1111122,1111122' 
COMPS,ioos:station:USF.COMPS:CAM:1,2012-09-16T21:00:00Z,27.7650,-82.6490,10.0,1.5,190.0,,'1111122,1111122,1111122' 
COMPS,ioos:station:USF.COMPS:CAM:1,2012-09-16T22:00:00Z,27.7650,-82.6490,10.0,3.6,90.0,,'1111122,1111122,1111122' 
COMPS,ioos:station:USF.COMPS:CAM:1,2012-09-16T23:00:00Z,27.7650,-82.6490,10.0,1.5,110.0,,'1111122,1111122,1111122' 
COMPS,ioos:station:USF.COMPS:CAM:1,2012-09-17T00:00:00Z,27.7650,-82.6490,10.0,1.5,110.0,,'1111122,1111122,1111122' 
COMPS,ioos:station:USF.COMPS:CAM:1,2012-09-17T01:00:00Z,27.7650,-82.6490,10.0,1.0,100.0,,'1111122,1111122,1111122' 
COMPS,ioos:station:USF.COMPS:CAM:1,2012-09-17T02:00:00Z,27.7650,-82.6490,10.0,1.5,110.0,,'1111122,1111122,1111122' 
COMPS,ioos:station:USF.COMPS:CAM:1,2012-09-17T03:00:00Z,27.7650,-82.6490,10.0,1.0,100.0,,'1111122,1111122,1111122' 
COMPS,ioos:station:USF.COMPS:CAM:1,2012-09-17T04:00:00Z,27.7650,-82.6490,10.0,1.0,110.0,,'1111122,1111122,1111122' 
COMPS,ioos:station:USF.COMPS:CAM:1,2012-09-17T05:00:00Z,27.7650,-82.6490,10.0,1.0,110.0,,'1111122,1111122,1111122' 
COMPS,ioos:station:USF.COMPS:CAM:1,2012-09-17T06:00:00Z,27.7650,-82.6490,10.0,1.5,90.0,,'1111122,1111122,1111122' 
COMPS,ioos:station:USF.COMPS:CAM:1,2012-09-17T07:00:00Z,27.7650,-82.6490,10.0,1.0,90.0,,'1111122,1111122,1111122' 
COMPS,ioos:station:USF.COMPS:CAM:1,2012-09-17T08:00:00Z,27.7650,-82.6490,10.0,1.0,80.0,,'1111122,1111122,1111122' 
COMPS,ioos:station:USF.COMPS:CAM:1,2012-09-17T09:00:00Z,27.7650,-82.6490,10.0,1.0,80.0,,'1111122,1111122,1111122' 
COMPS,ioos:station:USF.COMPS:CAM:1,2012-09-17T10:00:00Z,27.7650,-82.6490,10.0,1.5,90.0,,'1111122,1111122,1111122' 